📊 Raw Sensor Data
Showing records 43926 to 43950 of 85,027 total
| ID | Distance (ft) | Battery V | Battery A | Int Temp (°F) | Int Humid (%) | Ext Temp (°F) | Solar V | RSSI | SNR | Time Stamp |
|---|---|---|---|---|---|---|---|---|---|---|
| 41114 | 15.8 | 3.87 | -5 | 53 | 42 | 54 | 0.10 | -68 | 8 | 05/20/2025 04:15 AM |
| 41113 | 15.8 | 3.87 | -5 | 53 | 42 | 55 | 0.00 | -68 | 8 | 05/20/2025 04:00 AM |
| 41112 | 15.8 | 3.86 | -5 | 53 | 43 | 56 | 0.00 | -69 | 8 | 05/20/2025 03:45 AM |
| 41111 | 15.8 | 3.95 | -5 | 53 | 43 | 55 | 0.00 | -69 | 8 | 05/20/2025 03:30 AM |
| 41110 | 15.8 | 3.95 | -5 | 54 | 43 | 56 | 0.00 | -69 | 7 | 05/20/2025 03:15 AM |
| 41109 | 15.8 | 3.87 | -5 | 54 | 43 | 56 | 0.00 | -69 | 8 | 05/20/2025 03:00 AM |
| 41108 | 15.8 | 3.96 | -5 | 54 | 43 | 56 | 0.00 | -69 | 7 | 05/20/2025 02:45 AM |
| 41107 | 15.8 | 3.96 | -5 | 54 | 43 | 54 | 0.00 | -69 | 7 | 05/20/2025 02:30 AM |
| 41106 | 15.8 | 3.87 | -5 | 55 | 43 | 57 | 0.00 | -70 | 8 | 05/20/2025 02:15 AM |
| 41105 | 15.8 | 3.88 | -5 | 55 | 43 | 58 | 0.00 | -69 | 8 | 05/20/2025 02:00 AM |
| 41104 | 15.8 | 3.89 | -5 | 55 | 43 | 57 | 0.00 | -69 | 8 | 05/20/2025 01:45 AM |
| 41103 | 15.7 | 3.96 | -5 | 54 | 44 | 59 | 0.00 | -69 | 7 | 05/20/2025 01:30 AM |
| 41102 | 15.8 | 3.89 | -5 | 55 | 44 | 57 | 0.10 | -69 | 8 | 05/20/2025 01:15 AM |
| 41101 | 15.7 | 3.90 | -5 | 55 | 45 | 58 | 0.10 | -69 | 8 | 05/20/2025 01:00 AM |
| 41100 | 15.7 | 3.90 | -5 | 56 | 45 | 56 | 0.00 | -68 | 7 | 05/20/2025 12:45 AM |
| 41099 | 15.8 | 3.96 | -5 | 57 | 45 | 58 | 0.10 | -69 | 8 | 05/20/2025 12:30 AM |
| 41098 | 15.8 | 3.97 | -5 | 59 | 44 | 60 | 0.10 | -69 | 8 | 05/20/2025 12:15 AM |
| 41097 | 15.7 | 3.91 | -5 | 60 | 44 | 61 | 0.00 | -69 | 8 | 05/20/2025 12:00 AM |
| 41096 | 15.7 | 3.91 | -5 | 61 | 44 | 62 | 0.00 | -69 | 8 | 05/19/2025 11:45 PM |
| 41095 | 15.7 | 3.91 | -5 | 61 | 44 | 62 | 0.00 | -68 | 8 | 05/19/2025 11:30 PM |
| 41094 | 15.7 | 3.91 | -5 | 62 | 44 | 63 | 0.00 | -68 | 8 | 05/19/2025 11:15 PM |
| 41093 | 15.7 | 3.91 | -5 | 63 | 45 | 64 | 0.00 | -68 | 8 | 05/19/2025 11:00 PM |
| 41092 | 15.7 | 3.91 | -5 | 63 | 45 | 64 | 0.00 | -67 | 8 | 05/19/2025 10:45 PM |
| 41091 | 15.7 | 3.91 | -5 | 64 | 45 | 65 | 0.00 | -68 | 7 | 05/19/2025 10:30 PM |
| 41090 | 15.7 | 3.91 | -5 | 64 | 46 | 65 | 0.00 | -70 | 8 | 05/19/2025 10:15 PM |